,,Stat5,,Stat1,,Stat2,,Stat3,,Stat4,,Wind1,,Wind1,
time,status,PA1M_AVG,status,PR1M_SUM,status,RH1M_AVG,status,SR1M_AVG,status,TA1M_AVG,status,W1dAve1m,status,W1sAve1m,
2001-04-10, 00:00:00,VALID,918.672,VALID,0,VALID,95.7874,VALID,-0.0509425,VALID,17.9075,VALID,137,VALID,0.570508,
2001-04-10, 00:01:00,VALID,918.654,VALID,0,VALID,96.9891,VALID,-0.0339617,VALID,17.917,VALID,175,VALID,0.880208,
2001-04-10, 00:02:00,VALID,918.634,VALID,0,VALID,97.3502,VALID,-0.0339617,VALID,17.9687,VALID,176,VALID,0.909766,
2001-04-10, 00:03:00,VALID,918.627,VALID,0,VALID,97.5155,VALID,-0.0169808,VALID,18.001,VALID,179,VALID,1.02204,
2001-04-10, 00:04:00,VALID,918.611,VALID,0,VALID,97.7788,VALID,-0.0679233,VALID,18.069,VALID,180,VALID,1.06908,
2001-04-10, 00:05:00,VALID,918.592,VALID,0,VALID,97.6936,VALID,-0.0169808,VALID,18.1398,VALID,177,VALID,0.838816,
2001-04-10, 00:06:00,VALID,918.589,VALID,0,VALID,97.4494,VALID,-0.0339617,VALID,18.1885,VALID,181,VALID,0.890024,
2001-04-10, 00:07:00,VALID,918.576,VALID,0,VALID,97.0209,VALID,-0.0339617,VALID,18.179,VALID,187,VALID,0.676367,
2001-04-10, 00:08:00,VALID,918.566,VALID,0,VALID,97.1849,VALID,-0.0509425,VALID,18.1659,VALID,189,VALID,0.734164,
2001-04-10, 00:09:00,VALID,918.544,VALID,0,VALID,97.2383,VALID,-0.0849042,VALID,18.1823,VALID,197,VALID,0.743389,
2001-04-10, 00:10:00,VALID,918.536,VALID,0,VALID,97.1824,VALID,-0.0169808,VALID,18.1818,VALID,200,VALID,0.726763,
2001-04-10, 00:11:00,VALID,918.525,VALID,0,VALID,97.2854,VALID,-0.0339617,VALID,18.2021,VALID,208,VALID,0.466216,
2001-04-10, 00:12:00,VALID,918.502,VALID,0,VALID,97.4303,VALID,-0.0339617,VALID,18.2208,VALID,216,VALID,0.586349,
2001-04-10, 00:13:00,VALID,918.472,VALID,0,VALID,97.3273,VALID,-0.0679233,VALID,18.2667,VALID,218,VALID,0.525699,
2001-04-10, 00:14:00,VALID,918.46,VALID,0,VALID,96.8925,VALID,-0.0169808,VALID,18.23,VALID,234,VALID,0.208116,
2001-04-10, 00:15:00,VALID,918.444,VALID,0,VALID,96.5389,VALID,-0.0169808,VALID,18.1984,VALID,234,VALID,0.544872,
2001-04-10, 00:16:00,VALID,918.436,VALID,0,VALID,96.7551,VALID,-0.0679233,VALID,18.179,VALID,229,VALID,0.66509,
2001-04-10, 00:17:00,VALID,918.436,VALID,0,VALID,96.7895,VALID,-0.0339617,VALID,18.1592,VALID,224,VALID,0.63239,
2001-04-10, 00:18:00,VALID,918.44,VALID,0,VALID,96.8149,VALID,-0.0169808,VALID,18.1398,VALID,226,VALID,0.288589,
2001-04-10, 00:19:00,VALID,918.437,VALID,0,VALID,96.7831,VALID,-0.0509425,VALID,18.1301,VALID,235,VALID,0.4081,
2001-04-10, 00:20:00,VALID,918.438,VALID,0,VALID,96.7958,VALID,-0.0849042,VALID,18.1008,VALID,229,VALID,0.524493,
2001-04-10, 00:21:00,VALID,918.437,VALID,0,VALID,96.9179,VALID,-0.0849042,VALID,18.0817,VALID,221,VALID,0.65067,
2001-04-10, 00:22:00,VALID,918.426,VALID,0,VALID,97.3757,VALID,-0.0849042,VALID,18.111,VALID,212,VALID,0.693527,
2001-04-10, 00:23:00,VALID,918.424,VALID,0,VALID,97.6541,VALID,-0.0849042,VALID,18.1463,VALID,212,VALID,0.587121,
2001-04-10, 00:24:00,VALID,918.422,VALID,0,VALID,97.7508,VALID,-0.0509425,VALID,18.1915,VALID,213,VALID,0.499132,
2001-04-10, 00:25:00,VALID,918.401,VALID,0,VALID,97.6796,VALID,-0.0509425,VALID,18.2272,VALID,212,VALID,0.349301,
2001-04-10, 00:26:00,VALID,918.394,VALID,0,VALID,97.5028,VALID,-0.0679233,VALID,18.2332,VALID,212,VALID,0.144431,
2001-04-10, 00:27:00,VALID,918.384,VALID,0,VALID,97.3197,VALID,-0.0509425,VALID,18.2399,VALID,208,VALID,0.281641,
2001-04-10, 00:28:00,VALID,918.379,VALID,0,VALID,97.2396,VALID,-0.0509425,VALID,18.2595,VALID,215,VALID,0.156696,
2001-04-10, 00:29:00,VALID,918.372,VALID,0,VALID,96.984,VALID,-0.0679233,VALID,18.2824,VALID,228,VALID,0,
2001-04-10, 00:30:00,VALID,918.384,VALID,0,VALID,96.7284,VALID,-0.0679233,VALID,18.269,VALID,234,VALID,0,
2001-04-10, 00:31:00,VALID,918.364,VALID,0,VALID,96.7653,VALID,-0.0679233,VALID,18.2655,VALID,235,VALID,0,
2001-04-10, 00:32:00,VALID,918.368,VALID,0,VALID,96.5224,VALID,-0.0339617,VALID,18.263,VALID,237,VALID,0,
2001-04-10, 00:33:00,VALID,918.357,VALID,0,VALID,96.1002,VALID,-0.0849042,VALID,18.2014,VALID,243,VALID,0,
2001-04-10, 00:34:00,VALID,918.339,VALID,0,VALID,95.9515,VALID,-0.0339617,VALID,18.1463,VALID,244,VALID,0,
2001-04-10, 00:35:00,VALID,918.331,VALID,0,VALID,95.9197,VALID,-0.0339617,VALID,18.1011,VALID,244,VALID,0,
2001-04-10, 00:36:00,VALID,918.312,VALID,0,VALID,95.9184,VALID,-0.0849042,VALID,18.0692,VALID,242,VALID,0,
2001-04-10, 00:37:00,VALID,918.309,VALID,0,VALID,95.9108,VALID,-0.0339617,VALID,18.0201,VALID,232,VALID,0,
2001-04-10, 00:38:00,VALID,918.305,VALID,0,VALID,96.2477,VALID,-0.0339617,VALID,17.9949,VALID,226,VALID,0,
2001-04-10, 00:39:00,VALID,918.305,VALID,0,VALID,96.7348,VALID,-0.0339617,VALID,17.9915,VALID,207,VALID,0,
2001-04-10, 00:40:00,VALID,918.301,VALID,0,VALID,96.9446,VALID,-0.0339617,VALID,18.0046,VALID,188,VALID,0,
2001-04-10, 00:41:00,VALID,918.294,VALID,0,VALID,96.8047,VALID,-0.0849042,VALID,17.9753,VALID,189,VALID,0,
2001-04-10, 00:42:00,VALID,918.3,VALID,0,VALID,97.5817,VALID,-0.0849042,VALID,17.9883,VALID,183,VALID,0.343527,
2001-04-10, 00:43:00,VALID,918.278,VALID,0,VALID,97.9275,VALID,-0.0509425,VALID,18.0854,VALID,179,VALID,1.21875,
2001-04-10, 00:44:00,VALID,918.273,VALID,0,VALID,97.9898,VALID,-0.101885,VALID,18.1398,VALID,182,VALID,1.071,
2001-04-10, 00:45:00,VALID,918.244,VALID,0,VALID,97.5753,VALID,-0.0679233,VALID,18.1693,VALID,168,VALID,0.988393,
2001-04-10, 00:46:00,VALID,918.226,VALID,0,VALID,97.3998,VALID,-0.0679233,VALID,18.1435,VALID,170,VALID,1.11418,
2001-04-10, 00:47:00,VALID,918.188,VALID,0,VALID,97.2104,VALID,-0.101885,VALID,18.1179,VALID,173,VALID,1.1155,
2001-04-10, 00:48:00,VALID,918.152,VALID,0,VALID,97.2701,VALID,-0.0509425,VALID,18.1047,VALID,176,VALID,1.34601,
2001-04-10, 00:49:00,VALID,918.12,VALID,0,VALID,97.279,VALID,-0.0679233,VALID,18.0955,VALID,176,VALID,1.15268,
2001-04-10, 00:50:00,VALID,918.086,VALID,0,VALID,97.3464,VALID,-0.0849042,VALID,18.0787,VALID,172,VALID,1.0024,
2001-04-10, 00:51:00,VALID,918.059,VALID,0,VALID,97.3083,VALID,-0.0849042,VALID,18.0662,VALID,170,VALID,1.00734,
2001-04-10, 00:52:00,VALID,918.049,VALID,0,VALID,97.279,VALID,-0.0509425,VALID,18.0468,VALID,170,VALID,0.731337,
2001-04-10, 00:53:00,VALID,918.039,VALID,0,VALID,97.3134,VALID,-0.101885,VALID,18.0173,VALID,166,VALID,0.906044,
2001-04-10, 00:54:00,VALID,918.035,VALID,0,VALID,97.4342,VALID,-0.0679233,VALID,18.024,VALID,169,VALID,0.973157,
2001-04-10, 00:55:00,VALID,918.042,VALID,0,VALID,97.5486,VALID,-0.0509425,VALID,18.0468,VALID,174,VALID,0.925391,
2001-04-10, 00:56:00,VALID,918.031,VALID,0,VALID,97.5422,VALID,-0.0509425,VALID,18.0593,VALID,168,VALID,1.02009,
2001-04-10, 00:57:00,VALID,918.028,VALID,0,VALID,97.3833,VALID,-0.101885,VALID,18.0761,VALID,169,VALID,0.884713,
2001-04-10, 00:58:00,VALID,918.027,VALID,0,VALID,97.2968,VALID,-0.0849042,VALID,18.0821,VALID,160,VALID,0.938649,
2001-04-10, 00:59:00,VALID,918.018,VALID,0,VALID,97.1442,VALID,-0.101885,VALID,18.0955,VALID,169,VALID,0.777902,
2001-04-10, 01:00:00,VALID,918.007,VALID,0,VALID,96.9675,VALID,-0.0849042,VALID,18.0987,VALID,175,VALID,0.892829,
2001-04-10, 01:01:00,VALID,917.995,VALID,0,VALID,97.0056,VALID,-0.101885,VALID,18.1047,VALID,181,VALID,1.0853,
2001-04-10, 01:02:00,VALID,917.982,VALID,0,VALID,96.9878,VALID,-0.101885,VALID,18.1237,VALID,177,VALID,1.15563,
2001-04-10, 01:03:00,VALID,917.966,VALID,0,VALID,96.6903,VALID,-0.0849042,VALID,18.1564,VALID,185,VALID,0.922545,
2001-04-10, 01:04:00,VALID,917.951,VALID,0,VALID,96.572,VALID,-0.0849042,VALID,18.1758,VALID,203,VALID,0.972756,
2001-04-10, 01:05:00,VALID,917.925,VALID,0,VALID,96.2948,VALID,-0.0679233,VALID,18.2021,VALID,200,VALID,0.943892,
2001-04-10, 01:06:00,VALID,917.908,VALID,0,VALID,96.113,VALID,-0.0849042,VALID,18.1859,VALID,205,VALID,0.92296,
2001-04-10, 01:07:00,VALID,917.885,VALID,0,VALID,96.3177,VALID,-0.0849042,VALID,18.185,VALID,204,VALID,0.935033,
2001-04-10, 01:08:00,VALID,917.878,VALID,0,VALID,96.2592,VALID,-0.0849042,VALID,18.2113,VALID,199,VALID,0.982973,
2001-04-10, 01:09:00,VALID,917.869,VALID,0,VALID,96.1562,VALID,-0.0679233,VALID,18.2367,VALID,199,VALID,0.943164,
2001-04-10, 01:10:00,VALID,917.874,VALID,0,VALID,96.0087,VALID,-0.0509425,VALID,18.269,VALID,199,VALID,0.946652,
2001-04-10, 01:11:00,VALID,917.879,VALID,0,VALID,95.7544,VALID,-0.101885,VALID,18.2953,VALID,205,VALID,0.667019,
2001-04-10, 01:12:00,VALID,917.898,VALID,0,VALID,95.4683,VALID,-0.101885,VALID,18.3149,VALID,218,VALID,0.599954,
2001-04-10, 01:13:00,VALID,917.938,VALID,0,VALID,95.5776,VALID,-0.101885,VALID,18.331,VALID,219,VALID,0.747545,
2001-04-10, 01:14:00,VALID,917.94,VALID,0,VALID,95.5509,VALID,-0.0679233,VALID,18.3502,VALID,216,VALID,0.952324,
2001-04-10, 01:15:00,VALID,917.965,VALID,0,VALID,95.3119,VALID,-0.0849042,VALID,18.4021,VALID,226,VALID,1.02724,
2001-04-10, 01:16:00,VALID,917.983,VALID,0,VALID,95.2343,VALID,-0.101885,VALID,18.4178,VALID,226,VALID,1.23191,
2001-04-10, 01:17:00,VALID,917.992,VALID,0,VALID,95.0835,VALID,-0.0509425,VALID,18.473,VALID,224,VALID,1.06928,
2001-04-10, 01:18:00,VALID,917.992,VALID,0,VALID,95.0321,VALID,-0.0339617,VALID,18.4794,VALID,225,VALID,1.05589,
2001-04-10, 01:19:00,VALID,917.998,VALID,0,VALID,95.1008,VALID,-0.0849042,VALID,18.4923,VALID,225,VALID,1.18963,
2001-04-10, 01:20:00,VALID,917.995,VALID,0,VALID,95.1122,VALID,-0.0849042,VALID,18.4828,VALID,231,VALID,1.11046,
2001-04-10, 01:21:00,VALID,917.997,VALID,0,VALID,95.1605,VALID,-0.101885,VALID,18.4602,VALID,229,VALID,0.811472,
2001-04-10, 01:22:00,VALID,918.01,VALID,0,VALID,95.2152,VALID,-0.0169808,VALID,18.4399,VALID,230,VALID,0.762019,
2001-04-10, 01:23:00,VALID,918.013,VALID,0,VALID,95.2228,VALID,0.0339617,VALID,18.4069,VALID,233,VALID,0.777148,
2001-04-10, 01:24:00,VALID,918.003,VALID,0,VALID,95.2508,VALID,0.0169808,VALID,18.3751,VALID,225,VALID,0.705357,
2001-04-10, 01:25:00,VALID,918.011,VALID,0,VALID,95.4505,VALID,0.0509425,VALID,18.355,VALID,221,VALID,0.697002,
2001-04-10, 01:26:00,VALID,918.012,VALID,0,VALID,95.6183,VALID,0.0509425,VALID,18.3324,VALID,217,VALID,0.747013,
2001-04-10, 01:27:00,VALID,918.002,VALID,0,VALID,95.6081,VALID,0.0339617,VALID,18.323,VALID,211,VALID,0.288393,
2001-04-10, 01:28:00,VALID,917.991,VALID,0,VALID,95.6259,VALID,0.0339617,VALID,18.2907,VALID,201,VALID,0.549679,
2001-04-10, 01:29:00,VALID,917.992,VALID,0,VALID,96.0926,VALID,0.0169808,VALID,18.2748,VALID,190,VALID,0.961571,
2001-04-10, 01:30:00,VALID,917.972,VALID,0,VALID,96.4334,VALID,0,VALID,18.3135,VALID,200,VALID,1.24445,
2001-04-10, 01:31:00,VALID,917.955,VALID,0,VALID,96.1104,VALID,0.0339617,VALID,18.3719,VALID,192,VALID,1.06094,
2001-04-10, 01:32:00,VALID,917.944,VALID,0,VALID,95.8917,VALID,0,VALID,18.4162,VALID,191,VALID,1.0633,
2001-04-10, 01:33:00,VALID,917.95,VALID,0,VALID,95.4047,VALID,0.0679233,VALID,18.4517,VALID,208,VALID,0.648201,
2001-04-10, 01:34:00,VALID,917.951,VALID,0,VALID,95.3729,VALID,0.0509425,VALID,18.4715,VALID,211,VALID,0.217014,
2001-04-10, 01:35:00,VALID,917.94,VALID,0,VALID,95.4021,VALID,0.0339617,VALID,18.4807,VALID,208,VALID,0.919613,
2001-04-10, 01:36:00,VALID,917.91,VALID,0,VALID,95.322,VALID,0.0679233,VALID,18.4971,VALID,192,VALID,0.820713,
2001-04-10, 01:37:00,VALID,917.894,VALID,0,VALID,95.3322,VALID,-0.0169808,VALID,18.5013,VALID,187,VALID,0.656445,
2001-04-10, 01:38:00,VALID,917.887,VALID,0,VALID,95.1834,VALID,-0.0679233,VALID,18.4918,VALID,164,VALID,0.742188,
2001-04-10, 01:39:00,VALID,917.863,VALID,0,VALID,95.0499,VALID,-0.0169808,VALID,18.4692,VALID,164,VALID,0.592905,
2001-04-10, 01:40:00,VALID,917.843,VALID,0,VALID,95.2038,VALID,-0.0169808,VALID,18.4434,VALID,166,VALID,0.667509,
2001-04-10, 01:41:00,VALID,917.836,VALID,0,VALID,95.2737,VALID,-0.0169808,VALID,18.4335,VALID,172,VALID,0.55692,
2001-04-10, 01:42:00,VALID,917.814,VALID,0,VALID,95.4454,VALID,0,VALID,18.3982,VALID,176,VALID,0.739183,
2001-04-10, 01:43:00,VALID,917.809,VALID,0,VALID,95.5751,VALID,-0.0339617,VALID,18.3947,VALID,173,VALID,0.836149,
2001-04-10, 01:44:00,VALID,917.792,VALID,0,VALID,95.4199,VALID,-0.0339617,VALID,18.379,VALID,163,VALID,0.964638,
2001-04-10, 01:45:00,VALID,917.785,VALID,0,VALID,95.1758,VALID,-0.0339617,VALID,18.3107,VALID,152,VALID,0.836607,
2001-04-10, 01:46:00,VALID,917.769,VALID,0,VALID,94.9037,VALID,-0.0339617,VALID,18.2332,VALID,154,VALID,0.986378,
2001-04-10, 01:47:00,VALID,917.747,VALID,0,VALID,95.4606,VALID,-0.0339617,VALID,18.1689,VALID,159,VALID,0.867188,
2001-04-10, 01:48:00,VALID,917.734,VALID,0,VALID,95.9502,VALID,-0.0339617,VALID,18.1463,VALID,163,VALID,1.09484,
2001-04-10, 01:49:00,VALID,917.698,VALID,0,VALID,96.2503,VALID,-0.0339617,VALID,18.1301,VALID,164,VALID,1.04893,
2001-04-10, 01:50:00,VALID,917.657,VALID,0,VALID,96.2783,VALID,-0.0679233,VALID,18.1137,VALID,167,VALID,1.122,
2001-04-10, 01:51:00,VALID,917.633,VALID,0,VALID,96.3368,VALID,-0.0509425,VALID,18.114,VALID,170,VALID,1.15313,
2001-04-10, 01:52:00,VALID,917.612,VALID,0,VALID,96.4601,VALID,-0.0679233,VALID,18.0974,VALID,172,VALID,1.37455,
2001-04-10, 01:53:00,VALID,917.581,VALID,0,VALID,96.4525,VALID,-0.0339617,VALID,18.147,VALID,174,VALID,1.31229,
2001-04-10, 01:54:00,VALID,917.556,VALID,0,VALID,96.1536,VALID,-0.0509425,VALID,18.1756,VALID,175,VALID,1.02826,
2001-04-10, 01:55:00,VALID,917.535,VALID,0,VALID,95.9464,VALID,-0.0509425,VALID,18.1793,VALID,176,VALID,1.07388,
2001-04-10, 01:56:00,VALID,917.515,VALID,0,VALID,95.8739,VALID,-0.0339617,VALID,18.1557,VALID,178,VALID,1.2474,
2001-04-10, 01:57:00,VALID,917.509,VALID,0,VALID,95.9833,VALID,-0.0849042,VALID,18.1592,VALID,176,VALID,1.37711,
2001-04-10, 01:58:00,VALID,917.487,VALID,0,VALID,95.9616,VALID,-0.0339617,VALID,18.1689,VALID,183,VALID,1.28536,
2001-04-10, 01:59:00,VALID,917.478,VALID,0,VALID,95.7823,VALID,-0.0509425,VALID,18.182,VALID,173,VALID,1.21384,
2001-04-10, 02:00:00,VALID,917.461,VALID,0,VALID,95.6717,VALID,-0.0849042,VALID,18.1818,VALID,171,VALID,1.05369,
2001-04-10, 02:01:00,VALID,917.452,VALID,0,VALID,95.7467,VALID,-0.0849042,VALID,18.1758,VALID,178,VALID,1.26752,
2001-04-10, 02:02:00,VALID,917.431,VALID,0,VALID,95.7518,VALID,-0.0679233,VALID,18.1661,VALID,189,VALID,1.00369,
2001-04-10, 02:03:00,VALID,917.419,VALID,0,VALID,95.8459,VALID,-0.0509425,VALID,18.1626,VALID,191,VALID,0.850123,
2001-04-10, 02:04:00,VALID,917.41,VALID,0,VALID,95.7633,VALID,-0.101885,VALID,18.15,VALID,190,VALID,0.809095,
2001-04-10, 02:05:00,VALID,917.412,VALID,0,VALID,95.7302,VALID,-0.101885,VALID,18.1596,VALID,194,VALID,1.05098,
2001-04-10, 02:06:00,VALID,917.395,VALID,0,VALID,95.5941,VALID,-0.0169808,VALID,18.1495,VALID,201,VALID,0.45,
2001-04-10, 02:07:00,VALID,917.389,VALID,0,VALID,95.5992,VALID,-0.0339617,VALID,18.1497,VALID,192,VALID,0.70777,
2001-04-10, 02:08:00,VALID,917.383,VALID,0,VALID,95.8078,VALID,0.0509425,VALID,18.1608,VALID,194,VALID,0.822381,
2001-04-10, 02:09:00,VALID,917.382,VALID,0,VALID,95.7505,VALID,0,VALID,18.2065,VALID,191,VALID,0.762054,
2001-04-10, 02:10:00,VALID,917.378,VALID,0,VALID,95.5242,VALID,0.0509425,VALID,18.2485,VALID,189,VALID,0.703325,
2001-04-10, 02:11:00,VALID,917.379,VALID,0,VALID,95.3665,VALID,0.0849042,VALID,18.2741,VALID,187,VALID,0.693412,
2001-04-10, 02:12:00,VALID,917.379,VALID,0,VALID,95.2381,VALID,0.0509425,VALID,18.2934,VALID,187,VALID,0.66653,
2001-04-10, 02:13:00,VALID,917.377,VALID,0,VALID,94.7981,VALID,0.0169808,VALID,18.3066,VALID,186,VALID,0.54933,
2001-04-10, 02:14:00,VALID,917.382,VALID,0,VALID,94.8706,VALID,0.0339617,VALID,18.2941,VALID,184,VALID,0.683494,
2001-04-10, 02:15:00,VALID,917.382,VALID,0,VALID,95.1211,VALID,0.0509425,VALID,18.2909,VALID,187,VALID,0.768229,
2001-04-10, 02:16:00,VALID,917.403,VALID,0,VALID,95.1643,VALID,0.0509425,VALID,18.2904,VALID,196,VALID,0.763672,
2001-04-10, 02:17:00,VALID,917.398,VALID,0,VALID,95.0423,VALID,0.0339617,VALID,18.2967,VALID,201,VALID,0.716077,
2001-04-10, 02:18:00,VALID,917.387,VALID,0,VALID,94.8172,VALID,0.0849042,VALID,18.3227,VALID,204,VALID,0.61258,
2001-04-10, 02:19:00,VALID,917.388,VALID,0,VALID,94.7142,VALID,0.0849042,VALID,18.3322,VALID,216,VALID,0.540234,
2001-04-10, 02:20:00,VALID,917.381,VALID,0,VALID,94.6099,VALID,0.0679233,VALID,18.3516,VALID,210,VALID,0.699107,
2001-04-10, 02:21:01,VALID,917.371,VALID,0,VALID,94.259,VALID,0.0679233,VALID,18.4037,VALID,205,VALID,0.701225,
2001-04-10, 02:22:00,VALID,917.359,VALID,0,VALID,93.8838,VALID,0.0169808,VALID,18.4134,VALID,203,VALID,0.484605,
2001-04-10, 02:23:00,VALID,917.336,VALID,0,VALID,93.9169,VALID,0.0679233,VALID,18.4228,VALID,190,VALID,0.620759,
2001-04-10, 02:24:00,VALID,917.332,VALID,0,VALID,93.8037,VALID,0,VALID,18.439,VALID,197,VALID,0.588742,
2001-04-10, 02:25:00,VALID,917.317,VALID,0,VALID,93.6638,VALID,0.0509425,VALID,18.4127,VALID,196,VALID,0.655828,
2001-04-10, 02:26:00,VALID,917.3,VALID,0,VALID,93.5354,VALID,0.0509425,VALID,18.3481,VALID,206,VALID,0.344572,
2001-04-10, 02:27:00,VALID,917.288,VALID,0,VALID,93.894,VALID,0.0849042,VALID,18.2706,VALID,208,VALID,0.606027,
2001-04-10, 02:28:00,VALID,917.279,VALID,0,VALID,94.1547,VALID,0.0339617,VALID,18.1963,VALID,213,VALID,0.416667,
2001-04-10, 02:29:00,VALID,917.26,VALID,0,VALID,94.4777,VALID,0.0339617,VALID,18.1288,VALID,215,VALID,0.273438,
2001-04-10, 02:30:00,VALID,917.24,VALID,0,VALID,94.8566,VALID,0.0509425,VALID,18.0676,VALID,206,VALID,0.481554,
2001-04-10, 02:31:01,VALID,917.226,VALID,0,VALID,95.4199,VALID,0.0339617,VALID,18.0132,VALID,188,VALID,0.892064,
2001-04-10, 02:32:01,VALID,917.204,VALID,0,VALID,95.8624,VALID,0.0509425,VALID,17.9585,VALID,174,VALID,1.10617,
2001-04-10, 02:33:00,VALID,917.197,VALID,0,VALID,96.4309,VALID,0.0169808,VALID,17.9325,VALID,177,VALID,1.11094,
2001-04-10, 02:34:00,VALID,917.188,VALID,0,VALID,96.6763,VALID,0.0169808,VALID,17.9096,VALID,181,VALID,1.17366,
2001-04-10, 02:35:00,VALID,917.185,VALID,0,VALID,96.909,VALID,0.0169808,VALID,17.926,VALID,184,VALID,1.18032,
2001-04-10, 02:36:00,VALID,917.17,VALID,0,VALID,96.8098,VALID,0,VALID,17.9421,VALID,185,VALID,1.22932,
2001-04-10, 02:37:00,VALID,917.17,VALID,0,VALID,96.6559,VALID,-0.0339617,VALID,17.9456,VALID,185,VALID,1.39487,
2001-04-10, 02:38:00,VALID,917.167,VALID,0,VALID,96.6903,VALID,-0.0509425,VALID,17.9597,VALID,177,VALID,1.54828,
2001-04-10, 02:39:00,VALID,917.149,VALID,0,VALID,96.5504,VALID,-0.0169808,VALID,17.9693,VALID,174,VALID,1.29033,
2001-04-10, 02:40:01,VALID,917.131,VALID,0,VALID,96.5135,VALID,0,VALID,17.9495,VALID,166,VALID,1.15152,
2001-04-10, 02:41:00,VALID,917.114,VALID,0,VALID,96.2452,VALID,-0.0169808,VALID,17.911,VALID,162,VALID,0.860491,
2001-04-10, 02:42:00,VALID,917.099,VALID,0,VALID,96.5771,VALID,-0.101885,VALID,17.8789,VALID,178,VALID,0.973357,
2001-04-10, 02:43:01,VALID,917.076,VALID,0,VALID,96.7144,VALID,-0.0339617,VALID,17.8598,VALID,179,VALID,0.977983,
2001-04-10, 02:44:00,VALID,917.054,VALID,0,VALID,96.6725,VALID,0,VALID,17.824,VALID,190,VALID,0.703993,
2001-04-10, 02:45:00,VALID,917.036,VALID,0,VALID,97.0781,VALID,-0.101885,VALID,17.801,VALID,188,VALID,0.83861,
2001-04-10, 02:46:00,VALID,917.027,VALID,0,VALID,97.2167,VALID,-0.0339617,VALID,17.824,VALID,190,VALID,0.942708,
2001-04-10, 02:47:00,VALID,917.001,VALID,0,VALID,97.1836,VALID,-0.0339617,VALID,17.8272,VALID,193,VALID,0.924609,
2001-04-10, 02:48:00,VALID,917.003,VALID,0,VALID,97.0285,VALID,-0.0679233,VALID,17.8531,VALID,186,VALID,0.910714,
2001-04-10, 02:49:00,VALID,916.995,VALID,0,VALID,96.8416,VALID,-0.0509425,VALID,17.8757,VALID,183,VALID,1.04012,
2001-04-10, 02:50:00,VALID,916.99,VALID,0,VALID,96.6038,VALID,-0.0509425,VALID,17.9075,VALID,178,VALID,0.828585,
2001-04-10, 02:51:00,VALID,917.009,VALID,0,VALID,96.4309,VALID,-0.0339617,VALID,17.9338,VALID,171,VALID,0.565402,
2001-04-10, 02:52:00,VALID,917.006,VALID,0,VALID,96.235,VALID,-0.0169808,VALID,17.934,VALID,171,VALID,0.547075,
2001-04-10, 02:53:00,VALID,917.003,VALID,0,VALID,96.2872,VALID,-0.0169808,VALID,17.9301,VALID,184,VALID,0.764569,
2001-04-10, 02:54:00,VALID,917.009,VALID,0,VALID,96.1854,VALID,-0.0169808,VALID,17.9431,VALID,192,VALID,0.813322,
2001-04-10, 02:55:00,VALID,917.014,VALID,0,VALID,95.9705,VALID,-0.0509425,VALID,17.9527,VALID,186,VALID,0.810938,
2001-04-10, 02:56:00,VALID,917.02,VALID,0,VALID,95.8993,VALID,-0.0169808,VALID,17.9502,VALID,184,VALID,0.654046,
2001-04-10, 02:57:00,VALID,917.024,VALID,0,VALID,95.7455,VALID,-0.0169808,VALID,17.94,VALID,188,VALID,0.899621,
2001-04-10, 02:58:00,VALID,917.021,VALID,0,VALID,95.5026,VALID,-0.0169808,VALID,17.9207,VALID,189,VALID,0.830295,
2001-04-10, 02:59:00,VALID,917.02,VALID,0,VALID,95.495,VALID,-0.0169808,VALID,17.905,VALID,192,VALID,0.790707,
2001-04-10, 03:00:00,VALID,917.027,VALID,0,VALID,95.2457,VALID,-0.0509425,VALID,17.8824,VALID,179,VALID,0.676683,
2001-04-10, 03:01:00,VALID,917.031,VALID,0,VALID,95.172,VALID,-0.0509425,VALID,17.8333,VALID,174,VALID,0.661328,
2001-04-10, 03:02:00,VALID,917.036,VALID,0,VALID,94.8655,VALID,-0.0509425,VALID,17.7915,VALID,172,VALID,0.527679,
2001-04-10, 03:03:01,VALID,917.032,VALID,0,VALID,95.2343,VALID,-0.0339617,VALID,17.7269,VALID,167,VALID,0.581503,
2001-04-10, 03:04:00,VALID,917.029,VALID,0,VALID,95.8637,VALID,-0.0679233,VALID,17.7302,VALID,169,VALID,0.666131,
2001-04-10, 03:05:01,VALID,917.032,VALID,0,VALID,96.1575,VALID,-0.0509425,VALID,17.7689,VALID,176,VALID,0.839509,
2001-04-10, 03:06:01,VALID,917.034,VALID,0,VALID,95.8472,VALID,-0.0509425,VALID,17.8595,VALID,177,VALID,0.840745,
2001-04-10, 03:07:00,VALID,917.034,VALID,0,VALID,95.3627,VALID,-0.0509425,VALID,17.9532,VALID,175,VALID,0.833404,
2001-04-10, 03:08:00,VALID,917.046,VALID,0,VALID,94.8464,VALID,-0.0849042,VALID,18.0309,VALID,171,VALID,0.853618,
2001-04-10, 03:09:00,VALID,917.05,VALID,0,VALID,94.5158,VALID,-0.0679233,VALID,18.0634,VALID,168,VALID,0.849777,
2001-04-10, 03:10:00,VALID,917.071,VALID,0,VALID,94.5298,VALID,-0.0509425,VALID,18.0791,VALID,169,VALID,0.963542,
2001-04-10, 03:11:00,VALID,917.066,VALID,0,VALID,94.5095,VALID,-0.0169808,VALID,18.0886,VALID,172,VALID,1.08097,
2001-04-10, 03:12:00,VALID,917.074,VALID,0,VALID,94.3747,VALID,-0.0169808,VALID,18.1082,VALID,173,VALID,1.14605,
2001-04-10, 03:13:00,VALID,917.069,VALID,0,VALID,94.2386,VALID,-0.0169808,VALID,18.1013,VALID,174,VALID,1.1801,
2001-04-10, 03:14:01,VALID,917.064,VALID,0,VALID,94.2323,VALID,-0.0169808,VALID,18.0692,VALID,175,VALID,1.15204,
2001-04-10, 03:15:01,VALID,917.064,VALID,0,VALID,94.6188,VALID,-0.0169808,VALID,18.0372,VALID,175,VALID,1.10547,
2001-04-10, 03:16:01,VALID,917.055,VALID,0,VALID,94.6455,VALID,-0.0169808,VALID,18.0143,VALID,178,VALID,0.787723,
2001-04-10, 03:17:00,VALID,917.053,VALID,0,VALID,94.3581,VALID,0,VALID,17.9823,VALID,202,VALID,0.649704,
2001-04-10, 03:18:01,VALID,917.054,VALID,0,VALID,94.6595,VALID,0,VALID,17.947,VALID,201,VALID,1.10823,
2001-04-10, 03:19:01,VALID,917.061,VALID,0,VALID,94.6773,VALID,-0.0169808,VALID,17.937,VALID,201,VALID,0.600223,
2001-04-10, 03:20:01,VALID,917.069,VALID,0,VALID,94.6252,VALID,-0.0679233,VALID,17.9207,VALID,209,VALID,0.576322,
2001-04-10, 03:21:00,VALID,917.08,VALID,0,VALID,94.6303,VALID,-0.0169808,VALID,17.9213,VALID,214,VALID,0.5606,
2001-04-10, 03:22:01,VALID,917.087,VALID,0,VALID,94.4077,VALID,-0.0339617,VALID,17.875,VALID,215,VALID,0.113076,
2001-04-10, 03:23:00,VALID,917.095,VALID,0,VALID,93.5519,VALID,0,VALID,17.7975,VALID,205,VALID,0,
2001-04-10, 03:24:00,VALID,917.113,VALID,0,VALID,92.8068,VALID,0.0339617,VALID,17.5997,VALID,156,VALID,0.248798,
2001-04-10, 03:25:00,VALID,917.124,VALID,0,VALID,93.276,VALID,0.0679233,VALID,17.4285,VALID,137,VALID,0.257339,
2001-04-10, 03:26:00,VALID,917.127,VALID,0,VALID,94.5196,VALID,0.0679233,VALID,17.3326,VALID,137,VALID,0.0431858,
2001-04-10, 03:27:00,VALID,917.126,VALID,0,VALID,95.4288,VALID,0,VALID,17.3095,VALID,137,VALID,0.00411184,
2001-04-10, 03:28:00,VALID,917.133,VALID,0,VALID,95.6984,VALID,0,VALID,17.2742,VALID,137,VALID,0,
2001-04-10, 03:29:00,VALID,917.134,VALID,0,VALID,96.3927,VALID,0.0169808,VALID,17.2968,VALID,137,VALID,0,
2001-04-10, 03:30:00,VALID,917.129,VALID,0,VALID,96.6547,VALID,0.0169808,VALID,17.3065,VALID,137,VALID,0,